Flag for Senegal Weather past 2 weeks in Thiès, Senegal

Now
75 °F

Clear.


Feels Like: 77 °F
Forecast: 63 / 94 °F
Wind: 12 mph from North

Location: Dakar / Yoff

Current Time: Mar 1, 2015 at 1:31:24 PM

Latest Report: Mar 1, 2015 at 1:00 PM


Visibility: 4 mi

Pressure: 29.98 "Hg

Humidity: 39%

Dew point: 48 °F

Location of ThièsLocation

Historic Weather in Thiès — Graph

°F

Thiès temperature yesterday

Maximum temperature yesterday: 77 °F (at 2:00 PM)
Minimum temperature yesterday: 66 °F (at 6:00 AM)
Average temperature yesterday: 71 °F

Past Weeks' High & Low Weather Summary

 TemperatureHumidityPressure
High86 °F (Feb 16, 2:00 PM)94% (Feb 25, 8:00 AM)30.04 "Hg (Feb 25, 8:00 AM)
Low61 °F (Feb 21, 6:00 AM)16% (Feb 27, 8:30 AM)29.77 "Hg (Feb 26, 3:30 PM)
Average68 °F67%29.93 "Hg
* Reported Feb 14 12:00 Noon — Mar 1 12:30 PM, Thiès, Weather by CustomWeather, © 2015

Note: Actual official high and low records may vary slightly from our data, if they occured in-between our weather recording intervals... More about our weather records

Advertising

Thiès weather history for previous 24 hours

 ConditionsComfort  
Time TempWeatherWind HumidityBarometerVisibility
12:30 PM
Sun, Mar 1
75 °FClear.12 mph36%29.98 "Hg4 mi
12:00 PM73 °FClear.9 mph29%30.01 "Hg4 mi
11:30 AM73 °FClear.8 mph36%30.01 "Hg4 mi
11:00 AM73 °FClear.8 mph36%30.01 "Hg4 mi
10:30 AM72 °FClear.8 mph36%30.01 "Hg4 mi
10:00 AM72 °FClear.9 mph31%30.01 "Hg4 mi
9:30 AM68 °FClear.8 mph43%30.01 "Hg4 mi
9:00 AM68 °FClear.9 mph43%30.01 "Hg4 mi
8:30 AM64 °FClear.10 mph60%30.01 "Hg4 mi
8:00 AM64 °FClear.10 mph60%29.98 "Hg4 mi
7:30 AM64 °FClear.9 mph64%29.98 "Hg4 mi
7:00 AM64 °FClear.10 mph64%29.98 "Hg4 mi
6:30 AM64 °FClear.12 mph64%29.98 "Hg4 mi
6:00 AM64 °FClear.12 mph64%29.95 "Hg4 mi
5:30 AM66 °FClear.10 mph64%29.95 "Hg4 mi
5:00 AM64 °FClear.10 mph68%29.95 "Hg4 mi
4:30 AM64 °FClear.10 mph73%29.95 "Hg4 mi
4:00 AM64 °FClear.10 mph73%29.95 "Hg4 mi
3:30 AM64 °FDuststorm.9 mph78%29.95 "Hg3 mi
3:00 AM64 °FDuststorm.10 mph78%29.98 "Hg3 mi
2:30 AM66 °FDuststorm.10 mph73%29.98 "Hg3 mi
2:00 AM66 °FDuststorm.10 mph73%29.98 "Hg3 mi
1:30 AM66 °FDuststorm.10 mph68%29.98 "Hg3 mi
1:00 AM66 °FDuststorm.12 mph68%30.01 "Hg3 mi
12:30 AM66 °FDuststorm.13 mph68%30.01 "Hg3 mi
12:00 AM66 °FDuststorm.12 mph68%30.01 "Hg3 mi
11:30 PM
Sat, Feb 28
66 °FDuststorm.10 mph68%30.01 "Hg3 mi
11:00 PM66 °FDuststorm.12 mph68%30.01 "Hg3 mi
10:30 PM66 °FDuststorm.13 mph68%29.98 "Hg3 mi
10:00 PM66 °FDuststorm.12 mph73%29.98 "Hg3 mi
9:30 PM68 °FDuststorm.12 mph73%29.98 "Hg3 mi
9:00 PM68 °FDuststorm.13 mph73%29.95 "Hg3 mi
8:30 PM68 °FDuststorm.15 mph56%29.95 "Hg3 mi
8:00 PM68 °FDuststorm.15 mph56%29.92 "Hg3 mi
7:30 PM70 °FDuststorm.9 mph53%29.92 "Hg3 mi
7:00 PM70 °FDuststorm.16 mph57%29.92 "Hg3 mi
6:30 PM72 °FDuststorm.16 mph50%29.89 "Hg2 mi
6:00 PM73 °FDuststorm.17 mph44%29.89 "Hg2 mi
5:30 PM75 °FDuststorm.16 mph39%29.89 "Hg2 mi
5:00 PM75 °FDuststorm.17 mph36%29.89 "Hg2 mi
4:30 PM75 °FDuststorm.17 mph36%29.89 "Hg2 mi
4:00 PM75 °FDuststorm.15 mph36%29.89 "Hg2 mi
3:30 PM77 °FDuststorm.14 mph34%29.89 "Hg2 mi
3:00 PM77 °FDuststorm.13 mph34%29.89 "Hg2 mi
2:30 PM77 °FDuststorm.13 mph34%29.92 "Hg2 mi
2:00 PM77 °FDuststorm.14 mph34%29.92 "Hg2 mi
1:30 PM75 °FDuststorm.14 mph36%29.95 "Hg1 mi
1:00 PM75 °FDuststorm.16 mph36%29.95 "Hg1 mi
Weather by CustomWeather, © 2015

See weather overviewHow to use our weather pages